GW1418 Weather Reports


Display with metric or nautical units.
time (UTC)temp
F
wind
direction
speed
MPH
gust
MPH
rain 1hr
in
rain 24hr
in
rain mn
in
humidity
%
barometer
mb
20260510022144 79 144 2.0 2.0 0.00 0.00 0.00 63 1009.9
20260510021640 78 147 1.0 2.0 0.00 0.00 0.00 62 1009.6
20260510021137 78 141 2.0 2.0 0.00 0.00 0.00 63 1009.6
20260510020632 78 149 2.0 2.0 0.00 0.00 0.00 63 1009.6
20260510020127 79 138 2.0 2.0 0.00 0.00 0.00 62 1009.6
20260510015624 79 147 2.0 3.0 0.00 0.00 0.00 61 1009.6
20260510015120 80 145 3.0 5.0 0.00 0.00 0.00 60 1009.6
20260510014616 80 140 2.0 2.0 0.00 0.00 0.00 59 1009.6
20260510014113 80 151 2.0 3.0 0.00 0.00 0.00 59 1009.6
20260510013608 81 147 2.0 2.0 0.00 0.00 0.00 58 1009.2
20260510013103 81 140 1.0 1.0 0.00 0.00 0.00 57 1009.6
20260510012557 82 139 1.0 1.0 0.00 0.00 0.00 56 1009.2
20260510012054 82 145 2.0 2.0 0.00 0.00 0.00 56 1009.6
20260510011554 82 141 1.0 2.0 0.00 0.00 0.00 56 1009.2
20260510011050 83 141 1.0 1.0 0.00 0.00 0.00 55 1009.2
20260510010547 84 138 1.0 1.0 0.00 0.00 0.00 55 1008.9
20260510010044 84 138 1.0 1.0 0.00 0.00 0.00 53 1009.2
20260510005539 85 144 2.0 2.0 0.00 0.00 0.00 52 1008.9
20260510005037 85 146 3.0 3.0 0.00 0.00 0.00 52 1009.2
20260510004535 86 150 3.0 3.0 0.00 0.00 0.00 51 1008.9
20260510004032 86 154 3.0 5.0 0.00 0.00 0.00 50 1008.9
20260510003529 86 139 3.0 3.0 0.00 0.00 0.00 51 1008.9
20260510003024 87 155 3.0 3.0 0.00 0.00 0.00 50 1008.9
20260510002520 87 132 3.0 3.0 0.00 0.00 0.00 50 1008.9
20260510002017 87 142 2.0 2.0 0.00 0.00 0.00 50 1008.9
20260510001515 87 145 4.0 5.0 0.00 0.00 0.00 49 1009.2
20260510001012 88 143 6.0 7.0 0.00 0.00 0.00 49 1009.2
20260510000507 88 154 4.0 6.0 0.00 0.00 0.00 49 1009.2
20260510000004 88 141 8.0 10.0 0.00 0.00 0.00 48 1009.2
20260509235501 88 149 4.0 6.0 0.00 0.00 0.00 49 1009.2
20260509234957 89 169 5.0 6.0 0.00 0.00 0.00 49 1009.2
20260509234454 89 134 2.0 3.0 0.00 0.00 0.00 50 1008.9
20260509233952 89 131 5.0 6.0 0.00 0.00 0.00 48 1008.9
20260509233449 90 158 4.0 5.0 0.00 0.00 0.00 47 1009.2
20260509232945 90 129 3.0 5.0 0.00 0.00 0.00 47 1009.2
20260509232443 90 148 6.0 8.0 0.00 0.00 0.00 46 1008.9
20260509231938 90 132 6.0 7.0 0.00 0.00 0.00 45 1009.2
20260509231435 90 133 7.0 9.0 0.00 0.00 0.00 46 1008.9
20260509230934 90 144 4.0 5.0 0.00 0.00 0.00 46 1009.2
20260509230430 91 150 6.0 7.0 0.00 0.00 0.00 45 1008.9
20260509225926 90 163 7.0 8.0 0.00 0.00 0.00 45 1008.9
20260509225422 90 155 6.0 7.0 0.00 0.00 0.00 45 1008.9
20260509224919 91 162 3.0 5.0 0.00 0.00 0.00 46 1008.9
20260509224414 91 169 2.0 6.0 0.00 0.00 0.00 45 1009.2
20260509223912 91 154 4.0 6.0 0.00 0.00 0.00 45 1008.9
20260509223408 91 154 4.0 5.0 0.00 0.00 0.00 44 1009.2
20260509222905 91 150 3.0 5.0 0.00 0.00 0.00 43 1009.2
20260509222401 91 143 3.0 3.0 0.00 0.00 0.00 44 1009.2
20260509221856 91 157 5.0 6.0 0.00 0.00 0.00 46 1008.9
20260509221354 91 164 7.0 8.0 0.00 0.00 0.00 42 1009.2
20260509220849 91 142 5.0 6.0 0.00 0.00 0.00 45 1008.9
20260509220345 91 134 3.0 3.0 0.00 0.00 0.00 45 1008.9
20260509215841 91 140 0.0 0.0 0.00 0.00 0.00 45 1008.9
20260509215338 90 155 5.0 7.0 0.00 0.00 0.00 47 1009.6
20260509214835 89 155 6.0 7.0 0.00 0.00 0.00 47 1008.9
20260509214332 90 159 7.0 8.0 0.00 0.00 0.00 48 1009.2
20260509213829 91 134 7.0 9.0 0.00 0.00 0.00 49 1009.2
20260509213324 92 132 5.0 6.0 0.00 0.00 0.00 46 1009.6
20260509212822 92 144 3.0 3.0 0.00 0.00 0.00 46 1009.6
20260509212320 90 127 3.0 5.0 0.00 0.00 0.00 47 1009.6
20260509211815 89 134 5.0 7.0 0.00 0.00 0.00 48 1009.6
20260509211311 90 139 6.0 7.0 0.00 0.00 0.00 48 1009.9
20260509210808 90 163 4.0 6.0 0.00 0.00 0.00 48 1009.9
20260509210306 90 107 9.0 11.0 0.00 0.00 0.00 48 1009.9
20260509205805 92 130 6.0 7.0 0.00 0.00 0.00 46 1009.9
20260509205300 91 117 1.0 1.0 0.00 0.00 0.00 48 1009.9
20260509204756 90 116 1.0 1.0 0.00 0.00 0.00 47 1010.2
20260509204252 90 109 1.0 3.0 0.00 0.00 0.00 47 1010.2
20260509203748 90 138 7.0 9.0 0.00 0.00 0.00 49 1010.2
20260509203247 92 129 4.0 5.0 0.00 0.00 0.00 46 1010.6
20260509202743 93 133 2.0 2.0 0.00 0.00 0.00 44 1010.6
20260509202239 93 129 3.0 5.0 0.00 0.00 0.00 45 1010.6
20260509201739 91 132 0.0 1.0 0.00 0.00 0.00 45 1010.6
20260509201236 91 136 0.0 1.0 0.00 0.00 0.00 46 1010.6
20260509200732 90 129 0.0 1.0 0.00 0.00 0.00 46 1010.6
20260509200227 89 135 0.0 1.0 0.00 0.00 0.00 46 1011.0
20260509195724 89 103 4.0 6.0 0.00 0.00 0.00 46 1011.0
20260509195218 89 138 3.0 7.0 0.00 0.00 0.00 49 1011.0
20260509194713 91 180 2.0 2.0 0.00 0.00 0.00 48 1011.0
20260509194210 93 127 3.0 5.0 0.00 0.00 0.00 45 1011.0
20260509193707 93 154 1.0 1.0 0.00 0.00 0.00 44 1011.0
20260509193206 90 133 0.0 1.0 0.00 0.00 0.00 46 1011.4
20260509192703 92 118 2.0 3.0 0.00 0.00 0.00 44 1011.4
20260509192158 92 141 0.0 1.0 0.00 0.00 0.00 48 1011.4
20260509191654 91 152 1.0 1.0 0.00 0.00 0.00 45 1011.4
20260509191150 90 142 3.0 3.0 0.00 0.00 0.00 47 1011.4
20260509190646 88 127 1.0 1.0 0.00 0.00 0.00 48 1011.7
20260509190144 86 116 3.0 3.0 0.00 0.00 0.00 50 1011.7
20260509185642 87 158 4.0 5.0 0.00 0.00 0.00 51 1011.7
20260509185137 87 133 4.0 5.0 0.00 0.00 0.00 49 1011.7
20260509184635 88 208 2.0 2.0 0.00 0.00 0.00 50 1011.7
20260509184132 88 105 2.0 2.0 0.00 0.00 0.00 48 1011.7
20260509183628 87 126 0.0 1.0 0.00 0.00 0.00 50 1012.0
20260509183124 87 150 2.0 2.0 0.00 0.00 0.00 52 1012.4
20260509182620 85 127 2.0 3.0 0.00 0.00 0.00 55 1012.0
20260509182117 84 125 2.0 5.0 0.00 0.00 0.00 56 1012.4
20260509181615 85 192 2.0 3.0 0.00 0.00 0.00 57 1012.4
20260509181112 86 159 1.0 1.0 0.00 0.00 0.00 61 1012.4
20260509180608 85 156 3.0 3.0 0.00 0.00 0.00 59 1012.4
20260509180105 87 142 2.0 2.0 0.00 0.00 0.00 56 1012.4
20260509175601 86 130 1.0 2.0 0.00 0.00 0.00 58 1012.4
20260509175058 86 157 3.0 3.0 0.00 0.00 0.00 59 1012.7
20260509174554 85 132 2.0 3.0 0.00 0.00 0.00 59 1012.7
20260509174049 84 120 4.0 5.0 0.00 0.00 0.00 60 1012.7
20260509173544 83 131 1.0 1.0 0.00 0.00 0.00 60 1012.7
20260509173041 83 125 2.0 3.0 0.00 0.00 0.00 60 1012.7
20260509172538 83 137 2.0 2.0 0.00 0.00 0.00 63 1013.1
20260509172033 84 143 1.0 1.0 0.00 0.00 0.00 63 1012.7
20260509171529 82 167 2.0 2.0 0.00 0.00 0.00 61 1013.4
20260509171026 83 158 3.0 3.0 0.00 0.00 0.00 64 1013.4
20260509170522 81 154 1.0 2.0 0.00 0.00 0.00 64 1013.1
20260509170018 82 132 2.0 2.0 0.00 0.00 0.00 63 1013.4
20260509165516 79 126 0.0 0.0 0.00 0.00 0.00 65 1013.4
20260509165012 80 263 3.0 3.0 0.00 0.00 0.00 65 1013.4
20260509164509 82 134 0.0 0.0 0.00 0.00 0.00 63 1013.7
20260509164004 80 138 0.0 1.0 0.00 0.00 0.00 66 1013.4
20260509163502 77 133 0.0 0.0 0.00 0.00 0.00 68 1013.4
20260509163002 78 145 4.0 6.0 0.00 0.00 0.00 67 1013.4
20260509162500 78 150 1.0 1.0 0.00 0.00 0.00 67 1013.7
20260509161956 79 147 1.0 1.0 0.00 0.00 0.00 66 1013.4
20260509161452 79 137 1.0 1.0 0.00 0.00 0.00 67 1013.4
20260509160947 80 147 1.0 2.0 0.00 0.00 0.00 67 1013.7
20260509160444 81 138 1.0 1.0 0.00 0.00 0.00 63 1013.7
20260509155938 80 134 1.0 1.0 0.00 0.00 0.00 66 1013.7
20260509155436 79 144 2.0 2.0 0.00 0.00 0.00 67 1013.4
20260509154932 79 132 0.0 1.0 0.00 0.00 0.00 66 1013.7
20260509154428 77 129 0.0 0.0 0.00 0.00 0.00 69 1013.7
20260509153926 76 114 2.0 2.0 0.00 0.00 0.00 70 1013.7
20260509153422 75 133 1.0 1.0 0.00 0.00 0.00 70 1013.7
20260509152920 77 134 1.0 1.0 0.00 0.00 0.00 69 1013.4
20260509152415 76 138 0.0 1.0 0.00 0.00 0.00 68 1013.7
20260509151912 75 133 0.0 0.0 0.00 0.00 0.00 72 1013.4
20260509151408 75 126 1.0 2.0 0.00 0.00 0.00 69 1013.7
20260509150907 75 120 1.0 1.0 0.00 0.00 0.00 70 1013.7
20260509150404 73 130 1.0 1.0 0.00 0.00 0.00 72 1013.7
20260509145902 73 141 2.0 2.0 0.00 0.00 0.00 74 1013.7
20260509145401 73 141 2.0 2.0 0.00 0.00 0.00 72 1013.7
20260509144858 73 137 0.0 0.0 0.00 0.00 0.00 76 1013.7
20260509144355 72 143 0.0 1.0 0.00 0.00 0.00 75 1014.1
20260509143852 72 135 0.0 0.0 0.00 0.00 0.00 76 1014.1
20260509143349 71 134 0.0 0.0 0.00 0.00 0.00 78 1013.7
20260509142845 71 129 0.0 0.0 0.00 0.00 0.00 77 1013.7
20260509142342 70 133 0.0 0.0 0.00 0.00 0.00 80 1013.7
20260509141837 70 136 0.0 0.0 0.00 0.00 0.00 80 1013.7
20260509141335 70 131 0.0 1.0 0.00 0.00 0.00 79 1013.7
20260509140831 69 131 0.0 0.0 0.00 0.00 0.00 81 1014.1
20260509140328 68 126 2.0 2.0 0.00 0.00 0.00 82 1014.1
20260509135827 68 129 0.0 1.0 0.00 0.00 0.00 82 1014.1
20260509135323 68 118 1.0 1.0 0.00 0.00 0.00 83 1013.7
20260509134821 66 131 1.0 1.0 0.00 0.00 0.00 85 1014.1
20260509134318 66 122 1.0 1.0 0.00 0.00 0.00 86 1014.1
20260509133815 66 130 0.0 0.0 0.00 0.00 0.00 87 1014.1
20260509133311 66 119 0.0 0.0 0.00 0.00 0.00 88 1013.7
20260509132810 65 136 0.0 0.0 0.00 0.00 0.00 89 1014.1
20260509132308 65 89 1.0 1.0 0.00 0.00 0.00 90 1013.7
20260509131804 64 108 3.0 3.0 0.00 0.00 0.00 90 1014.1
20260509131301 64 122 1.0 1.0 0.00 0.00 0.00 92 1013.7
20260509130757 63 127 1.0 1.0 0.00 0.00 0.00 93 1013.7
20260509130253 62 129 0.0 0.0 0.00 0.00 0.00 94 1013.7
20260509125750 62 127 1.0 1.0 0.00 0.00 0.00 94 1014.1
20260509125247 62 131 0.0 0.0 0.00 0.00 0.00 94 1013.4
20260509124743 62 130 0.0 0.0 0.00 0.00 0.00 95 1013.4
20260509124240 62 130 0.0 0.0 0.00 0.00 0.00 95 1013.4
20260509123738 61 120 1.0 1.0 0.00 0.00 0.00 95 1013.4
20260509123235 61 141 0.0 0.0 0.00 0.00 0.00 95 1013.4
20260509122731 61 142 0.0 0.0 0.00 0.00 0.00 95 1013.4
20260509122228 61 143 0.0 0.0 0.00 0.00 0.00 95 1013.4
20260509121725 61 141 0.0 0.0 0.00 0.00 0.00 95 1013.4
20260509121222 61 141 0.0 0.0 0.00 0.00 0.00 94 1013.4
20260509120720 61 140 0.0 0.0 0.00 0.00 0.00 94 1013.1
20260509120218 60 161 2.0 2.0 0.00 0.00 0.00 94 1012.7
20260509115715 60 136 0.0 0.0 0.00 0.00 0.00 94 1012.4
20260509115212 61 137 0.0 0.0 0.00 0.00 0.00 94 1012.7
20260509114711 61 134 0.0 0.0 0.00 0.00 0.00 94 1012.4
20260509114209 61 135 0.0 0.0 0.00 0.00 0.00 94 1012.0
20260509113707 61 131 0.0 0.0 0.00 0.00 0.00 93 1012.0
20260509113204 61 134 0.0 0.0 0.00 0.00 0.00 93 1011.7
20260509112701 61 140 0.0 1.0 0.00 0.00 0.00 93 1011.4
20260509112158 61 140 0.0 1.0 0.00 0.00 0.00 93 1011.4
20260509111655 62 142 0.0 0.0 0.00 0.00 0.00 92 1011.0
20260509111151 62 137 0.0 0.0 0.00 0.00 0.00 92 1011.7
20260509110649 62 137 0.0 0.0 0.00 0.00 0.00 91 1011.4
20260509110146 62 137 0.0 0.0 0.00 0.00 0.00 91 1011.4
20260509105644 63 137 0.0 0.0 0.00 0.00 0.00 90 1011.4
20260509105141 63 140 0.0 0.0 0.00 0.00 0.00 90 1011.0
20260509104638 63 136 0.0 0.0 0.00 0.00 0.00 89 1011.4
20260509104135 64 136 0.0 0.0 0.00 0.00 0.00 88 1011.4
20260509103633 64 137 0.0 0.0 0.00 0.00 0.00 88 1011.4
20260509103130 64 131 0.0 0.0 0.00 0.00 0.00 87 1011.4
20260509102628 64 125 1.0 1.0 0.00 0.00 0.00 87 1011.7
20260509102125 64 175 2.0 2.0 0.00 0.00 0.00 87 1011.4
20260509101621 64 290 5.0 7.0 0.00 0.00 0.00 87 1011.7
20260509101117 64 303 2.0 5.0 0.00 0.00 0.00 86 1011.4
20260509100615 65 257 3.0 5.0 0.00 0.00 0.00 85 1011.4
20260509100112 66 195 3.0 3.0 0.00 0.00 0.00 84 1011.7
20260509095608 66 240 4.0 5.0 0.00 0.00 0.00 84 1011.7
20260509095106 66 270 5.0 7.0 0.00 0.00 0.00 84 1011.4
20260509094602 66 284 5.0 6.0 0.00 0.00 0.00 83 1011.4
20260509094059 66 256 9.0 11.0 0.00 0.00 0.00 82 1011.4
20260509093558 66 269 3.0 3.0 0.00 0.00 0.00 81 1011.4
20260509093055 66 180 3.0 3.0 0.00 0.00 0.00 83 1010.6
20260509092552 66 164 2.0 2.0 0.00 0.00 0.00 82 1010.6
20260509092051 66 177 4.0 5.0 0.00 0.00 0.00 81 1011.0
20260509091548 66 137 1.0 1.0 0.00 0.00 0.00 80 1011.0
20260509091044 66 141 1.0 1.0 0.00 0.00 0.00 79 1010.6
20260509090542 66 202 4.0 5.0 0.00 0.00 0.00 78 1010.2
20260509090040 66 175 3.0 6.0 0.00 0.00 0.00 78 1010.6
20260509085537 65 131 3.0 3.0 0.00 0.00 0.00 78 1010.6
20260509085032 65 173 5.0 6.0 0.00 0.00 0.00 79 1010.2
20260509084530 65 176 5.0 6.0 0.00 0.00 0.00 79 1010.6
20260509084027 66 143 1.0 1.0 0.00 0.00 0.00 78 1011.0
20260509083524 66 130 0.0 0.0 0.00 0.00 0.00 77 1010.6
20260509083021 66 64 3.0 3.0 0.00 0.00 0.00 75 1010.2
20260509082518 66 150 4.0 5.0 0.00 0.00 0.00 76 1010.2
20260509082015 66 224 7.0 8.0 0.00 0.00 0.00 78 1010.2
20260509081513 66 216 5.0 7.0 0.00 0.00 0.00 78 1010.6
20260509081009 65 154 3.0 5.0 0.00 0.00 0.00 78 1010.2
20260509080507 65 141 4.0 5.0 0.00 0.00 0.00 79 1010.6
20260509080005 65 157 4.0 6.0 0.00 0.00 0.00 80 1010.6
20260509075502 64 121 5.0 6.0 0.00 0.00 0.00 81 1011.0
20260509075000 64 140 3.0 3.0 0.00 0.00 0.00 81 1010.6
20260509074457 64 150 2.0 2.0 0.00 0.00 0.00 82 1011.0
20260509073953 64 128 4.0 6.0 0.00 0.00 0.00 83 1011.4
20260509073449 64 154 6.0 7.0 0.00 0.00 0.00 83 1012.0
20260509072946 65 148 4.0 6.0 0.00 0.00 0.00 82 1013.1
20260509072443 65 146 1.0 1.0 0.00 0.00 0.00 81 1013.4
20260509071940 66 141 0.0 0.0 0.00 0.00 0.00 80 1014.1
20260509071436 66 264 5.0 6.0 0.00 0.00 0.00 79 1014.8
20260509070934 66 60 3.0 3.0 0.00 0.00 0.00 78 1014.8
20260509070431 67 225 4.0 5.0 0.00 0.00 0.00 78 1014.8
20260509065926 68 315 7.0 10.0 0.00 0.00 0.00 74 1014.8
20260509065422 68 136 0.0 0.0 0.00 0.00 0.00 74 1014.5
20260509064919 69 143 1.0 1.0 0.00 0.00 0.00 75 1014.8
20260509064417 69 130 0.0 1.0 0.00 0.00 0.00 74 1014.5
20260509063914 69 140 3.0 3.0 0.00 0.00 0.00 74 1014.5
20260509063410 69 306 2.0 2.0 0.00 0.00 0.00 79 1014.5
20260509062907 69 123 1.0 2.0 0.00 0.00 0.00 85 1014.5
20260509062404 68 131 1.0 1.0 0.00 0.00 0.00 89 1014.8
20260509061902 69 162 2.0 3.0 0.00 0.00 0.00 91 1014.8
20260509061400 69 114 5.0 7.0 0.00 0.00 0.00 93 1014.5
20260509060856 68 169 1.0 2.0 0.00 0.00 0.00 93 1014.8
20260509060353 68 132 1.0 2.0 0.00 0.00 0.00 93 1014.1
20260509055848 68 86 1.0 2.0 0.00 0.00 0.00 93 1014.1
20260509055344 68 109 4.0 5.0 0.00 0.00 0.00 94 1014.1
20260509054841 68 307 2.0 2.0 0.00 0.00 0.00 94 1014.1
20260509054338 68 343 3.0 5.0 0.00 0.00 0.00 94 1013.4
20260509053836 68 322 2.0 3.0 0.00 0.00 0.00 93 1013.4
20260509053333 68 130 0.0 0.0 0.00 0.00 0.00 93 1012.7
20260509052832 68 133 0.0 0.0 0.00 0.00 0.00 92 1012.7
20260509052329 68 123 1.0 1.0 0.00 0.00 0.00 92 1012.7
20260509051826 69 123 1.0 1.0 0.00 0.00 0.00 91 1012.4
20260509051324 69 133 0.0 0.0 0.00 0.00 0.00 90 1011.7
20260509050820 70 133 0.0 0.0 0.00 0.00 0.00 89 1011.7
20260509050317 70 135 0.0 0.0 0.00 0.00 0.00 88 1011.7
20260509045814 71 138 1.0 2.0 0.00 0.05 0.05 88 1011.4
20260509045311 71 132 1.0 1.0 0.00 0.05 0.05 88 1011.4
20260509044808 71 131 1.0 1.0 0.00 0.05 0.05 88 1011.4
20260509044306 71 140 3.0 3.0 0.00 0.05 0.05 87 1011.0
20260509043802 71 169 3.0 5.0 0.00 0.05 0.05 87 1011.0
20260509043258 71 163 7.0 8.0 0.00 0.05 0.05 87 1010.6
20260509042754 71 165 3.0 3.0 0.00 0.05 0.05 87 1011.0
20260509042251 71 165 2.0 2.0 0.00 0.05 0.05 88 1011.4
20260509041748 71 138 2.0 3.0 0.00 0.05 0.05 88 1011.0
20260509041245 71 143 0.0 0.0 0.00 0.05 0.05 88 1011.4
20260509040743 71 161 2.0 2.0 0.00 0.05 0.05 88 1011.0
20260509040240 71 149 2.0 3.0 0.00 0.05 0.05 88 1011.0
20260509035737 71 136 3.0 3.0 0.00 0.05 0.05 88 1011.0
20260509035233 71 154 3.0 3.0 0.00 0.05 0.05 88 1011.0
20260509034731 70 141 2.0 3.0 0.00 0.05 0.05 88 1010.6
20260509034228 70 157 5.0 6.0 0.00 0.05 0.05 89 1010.6
20260509033725 70 143 2.0 3.0 0.00 0.05 0.05 89 1010.6
20260509033222 70 143 2.0 2.0 0.00 0.05 0.05 89 1010.6
20260509032719 70 134 1.0 1.0 0.00 0.05 0.05 88 1010.6
20260509032216 70 132 2.0 2.0 0.00 0.05 0.05 88 1011.0
20260509031713 71 146 2.0 2.0 0.00 0.05 0.05 88 1010.6
20260509031211 71 141 0.0 1.0 0.00 0.05 0.05 87 1010.6
20260509030709 71 138 1.0 1.0 0.00 0.05 0.05 87 1011.0
20260509030206 71 137 0.0 0.0 0.00 0.05 0.05 86 1010.6
20260509025702 71 140 0.0 0.0 0.00 0.05 0.05 86 1011.0
20260509025158 71 150 3.0 3.0 0.00 0.05 0.05 86 1010.6
20260509024653 72 170 2.0 3.0 0.00 0.05 0.05 85 1010.6
20260509024149 72 138 1.0 1.0 0.00 0.05 0.05 85 1010.6
20260509023648 72 146 1.0 2.0 0.00 0.05 0.05 85 1010.6
20260509023144 72 131 3.0 3.0 0.00 0.05 0.05 85 1010.2
20260509022640 72 157 2.0 2.0 0.00 0.05 0.05 85 1010.2